Track STARLINK-1694 now! 10-day predictions STARLINK-1694 is classified as:
1 46544U 20070N 24325.84192410 .00115575 00000-0 40934-2 0 9993 2 46544 53.0557 127.3374 0001407 31.5673 328.5410 15.28234513228328